sat.trackr.live / text

‹ back to catalog

SITRO-AIS 25

NORAD 59066 · 2024-039R

PAYLOAD ACTIVE UNKNOWN

§ Identity

Operator
Country
CIS
Launch date
2024-02-29
Launch site
VOSTO
Launch vehicle
Mass (kg)
RCS (m²)

Purposes: tech_demo

External: N2YO · Heavens-Above · Gunter

§ Orbital elements

Epoch: 2026-09-19T23:07:32.395296Z

Period
96.38 min
Inclination
95.3813°
Eccentricity
0.0143066
Mean motion
14.94060501 rev/d
Perigee alt
485.7 km
Apogee alt
684.9 km
Semi-major
6,963.4 km
B*
1.7709e-4
RAAN
300.1910°
Arg perigee
357.2877°
Mean anomaly
2.7557°
Rev number
13,887

§ Raw data

SITRO-AIS 251 59066U 24039R   26262.96356939  .00002280  00000+0  17709-3 0  99902 59066  95.3813 300.1910 0143066 357.2877   2.7557 14.94060501138873

JSON: /api/v1/satellites/59066 · /tle

For live sub-satellite position, see the globe view (requires WebGL).

§ Visibility from observer

Set your observer location to see the next 7 days of passes ≥ 10°. The values pass through the URL so the page stays shareable.

No JS? Fill the form by hand. The geolocation button needs JavaScript.

§ Radio — SatNOGS DB

ModeDescriptionDownlinkUplink
GMSK USP Mode U - GMSK2k4 USP 401.215 MHz

1 transmitter · refreshed weekly from db.satnogs.org